Miscellaneous Local Product
Issued by NWS North Platte, NE

Home | Current Version | Previous Version | Text Only | Print | Product List | Glossary On
Versions: 1 2 3 4 5 6 7 8 9 10 11 12 13 14 15 16 17 18 19 20 21 22 23 24 25 26 27 28 29 30 31 32 33 34 35 36 37 38 39 40 41 42 43 44 45 46 47 48 49 50
014
AXUS43 KLBF 190410
MISLBF


WESTERN AND NORTH CENTRAL NEBRASKA HOURLY WEATHER ROUNDUP
NATIONAL WEATHER SERVICE NORTH PLATTE NE
1100 PM CDT WED APR 18 2018

NOTE: "FAIR" INDICATES FEW OR NO CLOUDS BELOW 12,000 FEET WITH NO
SIGNIFICANT WEATHER AND/OR OBSTRUCTIONS TO VISIBILITY.

NOTE: STATIONS NOT REPORTING VARIABLES SUCH AS SKY/WEATHER OR
PRESSURE ARE PROVIDED BY RAWS AND APRS NETWORKS AND ARE NOT UNDER
NATIONAL WEATHER SERVICE QUALITY CONTROL.

...OBSERVATIONS IN AND NEAR THE EASTERN PANHANDLE OF NEBRASKA...

CITY           SKY/WX    TMP DP  RH WIND       PRES   REMARKS
PINE RIDGE     MOCLDY    38  35  89 NE3       30.28R
GORDON         FAIR      35  33  92 CALM      30.28R
CHADRON        PTCLDY    33  28  81 CALM      30.28R
ALLIANCE       CLEAR     33  27  78 CALM      30.27R
SIDNEY         CLEAR     29  21  72 CALM      30.27R
CRESCENT LAKE    N/A     40  29  65 E7          N/A
$$

...OBSERVATIONS IN NORTHERN NEBRASKA AND FAR SOUTHERN SOUTH DAKOTA...

CITY           SKY/WX    TMP DP  RH WIND       PRES   REMARKS
WINNER         FAIR      36  30  79 CALM      30.30R
VALENTINE      CLEAR     33  31  92 N3        30.29R
AINSWORTH      CLEAR     33  32  96 NW6       30.28S WCI  27
O`NEILL        CLEAR     36  34  93 NW9       30.27R WCI  29
THEDFORD       CLEAR     35  32  90 CALM      30.30R
BROKEN BOW     CLEAR     32  28  85 N8        30.27R WCI  25
ORD            CLEAR     31  29  92 NW7       30.27R WCI  24
ALBION         CLOUDY    35  33  90 NW9       30.26R WCI  28
VALENTINE NWR    N/A     33  30  88 CALM        N/A
HALSEY           N/A     34  30  86 N3          N/A
BUTTE            N/A     33  31  94 W3          N/A
CHAMBERS         N/A     34  33  95 NW3         N/A
EWING            N/A     36  34  91 NW8         N/A  WCI  30
$$

...OBSERVATIONS IN SOUTHWEST NEBRASKA AND FAR NORTHEAST COLORADO...

CITY           SKY/WX    TMP DP  RH WIND       PRES   REMARKS
WRAY           FAIR      37  27  65 CALM      30.28R
HOLYOKE        FAIR      36  25  64 W7        30.28R WCI  30
IMPERIAL       CLEAR     35  27  72 NE6       30.28R WCI  30
OGALLALA       CLEAR     42  32  69 E3        30.29R
NORTH PLATTE   CLEAR     36  29  75 CALM      30.28R
MCCOOK         CLEAR     39  30  70 E5        30.29R
LEXINGTON      CLEAR     37  30  74 NW6       30.28R WCI  33
STAPLETON        N/A     35  31  87 CALM        N/A
GOTHENBURG       N/A     41  32  69 W3          N/A
CALLAWAY         N/A     39  32  77 N8          N/A  WCI  33
$$

...OBSERVATIONS IN CENTRAL LINCOLN COUNTY AREA...

CITY           SKY/WX    TMP DP  RH WIND       PRES   REMARKS
N.P. AIRPORT   CLEAR     36  29  75 CALM      30.28R
N.P. DOWNTOWN    N/A     41  33  74 CALM        N/A
N.P. SOUTHEAST   N/A     38  32  79 CALM        N/A
N.P. HILLCREST   N/A     38  32  80 N3          N/A
$$

...OBSERVATIONS ACROSS THE ROCKIES AND WESTERN HIGH PLAINS...

CITY           SKY/WX    TMP DP  RH WIND       PRES   REMARKS
RAPID CITY     PTCLDY    36  32  85 SE6       30.28R WCI  31
SCOTTSBLUFF    PTCLDY    38  25  59 NE8       30.27R WCI  32
CHEYENNE       PTCLDY    36  17  46 E6        30.27R WCI  31
DENVER         PTCLDY    33  12  41 SE10      30.26R WCI  25
BERTHOUD PASS  FAIR      16   5  62 MISG      30.30R
MONARCH PASS   PTCLDY    23   0  36 E10       30.45R WCI  12
ASPEN          PTCLDY    37  16  42 SW8       30.16R WCI  31
STEAMBOAT      FAIR      37  14  39 N3        30.16R
LARAMIE        PTCLDY    34  16  47 E16       30.22S WCI  24
CASPER         MOCLDY    38  20  48 E13       30.20S WCI  30
$$

...OBSERVATIONS ACROSS THE NORTHERN PLAINS...

CITY           SKY/WX    TMP DP  RH WIND       PRES   REMARKS
BISMARCK       CLEAR     32  28  85 CALM      30.30R
FARGO          FAIR      34  31  88 N7        30.26R WCI  28
PIERRE         CLEAR     32  27  81 NE8       30.28R WCI  25
SIOUX FALLS    CLOUDY    34  29  82 NW12      30.23R WCI  25
$$

...OBSERVATIONS ACROSS THE CENTRAL AND SOUTHERN PLAINS...

CITY           SKY/WX    TMP DP  RH WIND       PRES   REMARKS
OMAHA          CLOUDY    38  32  79 N15       30.22R WCI  29
GRAND ISLAND   CLEAR     32  28  85 NW7       30.28R WCI  26
KANSAS CITY    CLOUDY    38  26  62 NW8       30.22R WCI  32
WICHITA        CLEAR     48  30  49 N10       30.25R
DODGE CITY     CLEAR     41  24  51 NE8       30.27R
OKLAHOMA CITY  CLEAR     55  27  34 NE14      30.24R
DALLAS         PTCLDY    63  32  31 N5        30.16R
AMARILLO       CLEAR     49  10  20 E8        30.29R
$$




USA.gov is the U.S. government's official web portal to all federal, state and local government web resources and services.